sat.trackr.live / text

‹ back to catalog

ONEWEB-0718

NORAD 56081 · 2023-043AM

PAYLOAD ACTIVE UNKNOWN

§ Identity

Operator
Country
UK
Launch date
2023-03-26
Launch site
SRILR
Launch vehicle
Mass (kg)
RCS (m²)

Purposes: comms

External: N2YO · Heavens-Above · Gunter

§ Orbital elements

Epoch: 2026-09-20T04:29:41.093952Z

Period
109.46 min
Inclination
87.8995°
Eccentricity
0.0001536
Mean motion
13.15549330 rev/d
Perigee alt
1,200.6 km
Apogee alt
1,202.9 km
Semi-major
7,579.9 km
B*
-1.5645e-4
RAAN
240.2607°
Arg perigee
88.7170°
Mean anomaly
271.4137°
Rev number
16,892

§ Raw data

ONEWEB-07181 56081U 23043AM  26263.18728118 -.00000046  00000+0 -15645-3 0  99922 56081  87.8995 240.2607 0001536  88.7170 271.4137 13.15549330168920

JSON: /api/v1/satellites/56081 · /tle

For live sub-satellite position, see the globe view (requires WebGL).

§ Visibility from observer

Set your observer location to see the next 7 days of passes ≥ 10°. The values pass through the URL so the page stays shareable.

No JS? Fill the form by hand. The geolocation button needs JavaScript.